This is the latest recevied weather packets stored in our database for station/object VR2OT-10. If no packets are shown the sender has not sent any weather packets the latest 10 day(s).
| Time | Temp. | Humidity | Pressure | Rain* | Wind** | Luminosity | Snow |
|---|---|---|---|---|---|---|---|
| 1778106739 | 23.33° C | 87% | 1012.6 hPa | - | 2.68 m/s, 90° | - | - |
| 1778105838 | 23.33° C | 87% | 1012.5 hPa | - | 2.68 m/s, 135° | - | - |
| 1778104937 | 23.33° C | 87% | 1012.3 hPa | - | 2.68 m/s, 90° | - | - |
| 1778103138 | 23.33° C | 87% | 1011.8 hPa | - | 2.68 m/s, 90° | - | - |
| 1778102237 | 23.33° C | 87% | 1011.8 hPa | - | 2.68 m/s, 90° | - | - |
| 1778101338 | 23.33° C | 87% | 1011.7 hPa | - | 1.79 m/s, 90° | - | - |
| 1778099537 | 23.33° C | 87% | 1011.7 hPa | - | 1.79 m/s, 90° | - | - |
| 1778098638 | 23.33° C | 87% | 1011.7 hPa | - | 1.79 m/s, 135° | - | - |
| 1778096838 | 23.33° C | 87% | 1011.6 hPa | - | 2.24 m/s, 135° | - | - |
| 1778095939 | 23.33° C | 87% | 1011.8 hPa | - | 1.79 m/s, 135° | - | - |
| 1778095038 | 23.33° C | 87% | 1011.8 hPa | - | 1.79 m/s, 135° | - | - |
| 1778094137 | 23.33° C | 87% | 1011.8 hPa | - | 1.79 m/s, 135° | - | - |
| 1778093237 | 23.33° C | 87% | 1011.8 hPa | - | 0.45 m/s, 135° | - | - |
| 1778092338 | 23.33° C | 87% | 1012 hPa | - | 0.45 m/s, 135° | - | - |
| 1778091437 | 23.33° C | 87% | 1012 hPa | - | 1.34 m/s, 135° | - | - |
| 1778089637 | 23.33° C | 86% | 1012.2 hPa | - | 1.34 m/s, 135° | - | - |
| 1778088737 | 23.33° C | 86% | 1012.2 hPa | - | 0.45 m/s, 45° | - | - |
| 1778087838 | 23.33° C | 86% | 1012.2 hPa | - | 1.34 m/s, 90° | - | - |
| 1778086939 | 23.33° C | 86% | 1012.3 hPa | - | 2.68 m/s, 90° | - | - |
| 1778086038 | 23.33° C | 86% | 1012.3 hPa | - | 2.68 m/s, 90° | - | - |
| 1778085139 | 23.33° C | 86% | 1012.5 hPa | - | 2.68 m/s, 90° | - | - |
| 1778084238 | 23.33° C | 86% | 1012.5 hPa | - | 2.24 m/s, 90° | - | - |
| 1778083337 | 23.33° C | 86% | 1012.7 hPa | - | 2.68 m/s, 90° | - | - |
| 1778082438 | 23.33° C | 86% | 1012.6 hPa | - | 2.24 m/s, 90° | - | - |
| 1778081538 | 23.33° C | 85% | 1012.8 hPa | - | 2.24 m/s, 90° | - | - |
* Rain since midnight (hover to see other rain measurements)
** Current wind speed in m/s (hover to see current wind gust speed)